Year,Month,Day,Hour,Minute,Value (Times are PST for temperature in C)
2008,07,04,00,00,18.90
2008,07,04,00,01,18.90
2008,07,04,00,02,18.90
2008,07,04,00,03,18.90
2008,07,04,00,04,18.90
2008,07,04,00,05,18.90
2008,07,04,00,06,18.90
2008,07,04,00,07,18.90
2008,07,04,00,08,18.90
2008,07,04,00,09,18.90
2008,07,04,00,10,18.90
2008,07,04,00,11,18.80
2008,07,04,00,12,18.80
2008,07,04,00,13,18.80
2008,07,04,00,14,18.80
2008,07,04,00,15,18.80
2008,07,04,00,16,18.70
2008,07,04,00,17,18.70
2008,07,04,00,18,18.60
2008,07,04,00,19,18.50
2008,07,04,00,20,18.40
2008,07,04,00,21,18.20
2008,07,04,00,22,18.10
2008,07,04,00,23,17.90
2008,07,04,00,24,17.70
2008,07,04,00,25,17.60
2008,07,04,00,26,17.50
2008,07,04,00,27,17.40
2008,07,04,00,28,17.30
2008,07,04,00,29,17.20
2008,07,04,00,30,17.20
2008,07,04,00,31,17.10
2008,07,04,00,32,17.10
2008,07,04,00,33,17.10
2008,07,04,00,34,17.00
2008,07,04,00,35,17.00
2008,07,04,00,36,16.90
2008,07,04,00,37,16.80
2008,07,04,00,38,16.70
2008,07,04,00,39,16.70
2008,07,04,00,40,16.70
2008,07,04,00,41,16.70
2008,07,04,00,42,16.70
2008,07,04,00,43,16.70
2008,07,04,00,44,16.70
2008,07,04,00,45,16.70
2008,07,04,00,46,16.70
2008,07,04,00,47,16.70
2008,07,04,00,48,16.70
2008,07,04,00,49,16.70
2008,07,04,00,50,16.70
2008,07,04,00,51,16.70
2008,07,04,00,52,16.70
2008,07,04,00,53,16.70
2008,07,04,00,54,16.70
2008,07,04,00,55,16.70
2008,07,04,00,56,16.70
2008,07,04,00,57,16.70
2008,07,04,00,58,16.70
2008,07,04,00,59,16.70
2008,07,04,01,00,16.80
2008,07,04,01,01,16.80
2008,07,04,01,02,16.90
2008,07,04,01,03,17.00
2008,07,04,01,04,17.00
2008,07,04,01,05,17.00
2008,07,04,01,06,17.00
2008,07,04,01,07,17.00
2008,07,04,01,08,17.00
2008,07,04,01,09,17.00
2008,07,04,01,10,17.00
2008,07,04,01,11,17.10
2008,07,04,01,12,17.10
2008,07,04,01,13,17.10
2008,07,04,01,14,17.00
2008,07,04,01,15,17.00
2008,07,04,01,16,17.00
2008,07,04,01,17,17.00
2008,07,04,01,18,16.90
2008,07,04,01,19,16.90
2008,07,04,01,20,16.90
2008,07,04,01,21,16.80
2008,07,04,01,22,16.80
2008,07,04,01,23,16.70
2008,07,04,01,24,16.70
2008,07,04,01,25,16.70
2008,07,04,01,26,16.70
2008,07,04,01,27,16.60
2008,07,04,01,28,16.50
2008,07,04,01,29,16.40
2008,07,04,01,30,16.30
2008,07,04,01,31,16.30
2008,07,04,01,32,16.10
2008,07,04,01,33,16.10
2008,07,04,01,34,15.90
2008,07,04,01,35,15.80
2008,07,04,01,36,15.70
2008,07,04,01,37,15.60
2008,07,04,01,38,15.60
2008,07,04,01,39,15.50
2008,07,04,01,40,15.40
2008,07,04,01,41,15.30
2008,07,04,01,42,15.30
2008,07,04,01,43,15.30
2008,07,04,01,44,15.20
2008,07,04,01,45,15.10
2008,07,04,01,46,15.10
2008,07,04,01,47,15.00
2008,07,04,01,48,14.90
2008,07,04,01,49,14.90
2008,07,04,01,50,14.80
2008,07,04,01,51,14.80
2008,07,04,01,52,14.80
2008,07,04,01,53,14.80
2008,07,04,01,54,14.80
2008,07,04,01,55,14.80
2008,07,04,01,56,14.70
2008,07,04,01,57,14.70
2008,07,04,01,58,14.70
2008,07,04,01,59,14.60
2008,07,04,02,00,14.60
2008,07,04,02,01,14.60
2008,07,04,02,02,14.60
2008,07,04,02,03,14.50
2008,07,04,02,04,14.50
2008,07,04,02,05,14.50
2008,07,04,02,06,14.50
2008,07,04,02,07,14.50
2008,07,04,02,08,14.50
2008,07,04,02,09,14.40
2008,07,04,02,10,14.40
2008,07,04,02,11,14.40
2008,07,04,02,12,14.40
2008,07,04,02,13,14.40
2008,07,04,02,14,14.40
2008,07,04,02,15,14.40
2008,07,04,02,16,14.40
2008,07,04,02,17,14.40
2008,07,04,02,18,14.40
2008,07,04,02,19,14.40
2008,07,04,02,20,14.30
2008,07,04,02,21,14.30
2008,07,04,02,22,14.40
2008,07,04,02,23,14.40
2008,07,04,02,24,14.50
2008,07,04,02,25,14.60
2008,07,04,02,26,14.60
2008,07,04,02,27,14.70
2008,07,04,02,28,14.70
2008,07,04,02,29,14.80
2008,07,04,02,30,14.80
2008,07,04,02,31,14.80
2008,07,04,02,32,14.80
2008,07,04,02,33,14.90
2008,07,04,02,34,15.00
2008,07,04,02,35,15.10
2008,07,04,02,36,15.20
2008,07,04,02,37,15.30
2008,07,04,02,38,15.40
2008,07,04,02,39,15.50
2008,07,04,02,40,15.60
2008,07,04,02,41,15.70
2008,07,04,02,42,15.80
2008,07,04,02,43,16.00
2008,07,04,02,44,16.10
2008,07,04,02,45,16.20
2008,07,04,02,46,16.20
2008,07,04,02,47,16.30
2008,07,04,02,48,16.40
2008,07,04,02,49,16.40
2008,07,04,02,50,16.40
2008,07,04,02,51,16.50
2008,07,04,02,52,16.60
2008,07,04,02,53,16.60
2008,07,04,02,54,16.60
2008,07,04,02,55,16.50
2008,07,04,02,56,16.40
2008,07,04,02,57,16.40
2008,07,04,02,58,16.30
2008,07,04,02,59,16.20
2008,07,04,03,00,16.20
2008,07,04,03,01,16.10
2008,07,04,03,02,15.90
2008,07,04,03,03,15.80
2008,07,04,03,04,15.80
2008,07,04,03,05,15.80
2008,07,04,03,06,15.80
2008,07,04,03,07,15.90
2008,07,04,03,08,16.00
2008,07,04,03,09,16.10
2008,07,04,03,10,16.10
2008,07,04,03,11,16.10
2008,07,04,03,12,16.20
2008,07,04,03,13,16.10
2008,07,04,03,14,16.10
2008,07,04,03,15,16.10
2008,07,04,03,16,16.20
2008,07,04,03,17,16.20
2008,07,04,03,18,16.20
2008,07,04,03,19,16.30
2008,07,04,03,20,16.30
2008,07,04,03,21,16.30
2008,07,04,03,22,16.40
2008,07,04,03,23,16.40
2008,07,04,03,24,16.40
2008,07,04,03,25,16.40
2008,07,04,03,26,16.30
2008,07,04,03,27,16.20
2008,07,04,03,28,16.10
2008,07,04,03,29,16.10
2008,07,04,03,30,16.10
2008,07,04,03,31,16.10
2008,07,04,03,32,16.00
2008,07,04,03,33,15.90
2008,07,04,03,34,15.90
2008,07,04,03,35,15.90
2008,07,04,03,36,15.90
2008,07,04,03,37,16.00
2008,07,04,03,38,16.10
2008,07,04,03,39,16.10
2008,07,04,03,40,16.10
2008,07,04,03,41,16.10
2008,07,04,03,42,16.10
2008,07,04,03,43,16.10
2008,07,04,03,44,16.10
2008,07,04,03,45,16.10
2008,07,04,03,46,16.20
2008,07,04,03,47,16.20
2008,07,04,03,48,16.20
2008,07,04,03,49,16.20
2008,07,04,03,50,16.20
2008,07,04,03,51,16.20
2008,07,04,03,52,16.20
2008,07,04,03,53,16.20
2008,07,04,03,54,16.20
2008,07,04,03,55,16.20
2008,07,04,03,56,16.10
2008,07,04,03,57,16.10
2008,07,04,03,58,16.10
2008,07,04,03,59,16.10
2008,07,04,04,00,16.00
2008,07,04,04,01,15.80
2008,07,04,04,02,15.70
2008,07,04,04,03,15.50
2008,07,04,04,04,15.40
2008,07,04,04,05,15.30
2008,07,04,04,06,15.20
2008,07,04,04,07,15.10
2008,07,04,04,08,15.00
2008,07,04,04,09,14.90
2008,07,04,04,10,14.90
2008,07,04,04,11,14.80
2008,07,04,04,12,14.80
2008,07,04,04,13,14.80
2008,07,04,04,14,14.80
2008,07,04,04,15,14.80
2008,07,04,04,16,14.70
2008,07,04,04,17,14.70
2008,07,04,04,18,14.60
2008,07,04,04,19,14.60
2008,07,04,04,20,14.60
2008,07,04,04,21,14.60
2008,07,04,04,22,14.50
2008,07,04,04,23,14.50
2008,07,04,04,24,14.50
2008,07,04,04,25,14.50
2008,07,04,04,26,14.50
2008,07,04,04,27,14.40
2008,07,04,04,28,14.40
2008,07,04,04,29,14.40
2008,07,04,04,30,14.50
2008,07,04,04,31,14.50
2008,07,04,04,32,14.50
2008,07,04,04,33,14.40
2008,07,04,04,34,14.40
2008,07,04,04,35,14.40
2008,07,04,04,36,14.40
2008,07,04,04,37,14.40
2008,07,04,04,38,14.40
2008,07,04,04,39,14.40
2008,07,04,04,40,14.40
2008,07,04,04,41,14.40
2008,07,04,04,42,14.50
2008,07,04,04,43,14.50
2008,07,04,04,44,14.60
2008,07,04,04,45,14.70
2008,07,04,04,46,14.80
2008,07,04,04,47,14.80
2008,07,04,04,48,14.90
2008,07,04,04,49,15.00
2008,07,04,04,50,15.10
2008,07,04,04,51,15.20
2008,07,04,04,52,15.30
2008,07,04,04,53,15.30
2008,07,04,04,54,15.40
2008,07,04,04,55,15.50
2008,07,04,04,56,15.60
2008,07,04,04,57,15.70
2008,07,04,04,58,15.80
2008,07,04,04,59,15.90
2008,07,04,05,00,16.10
2008,07,04,05,01,16.20
2008,07,04,05,02,16.20
2008,07,04,05,03,16.30
2008,07,04,05,04,16.40
2008,07,04,05,05,16.40
2008,07,04,05,06,16.50
2008,07,04,05,07,16.60
2008,07,04,05,08,16.60
2008,07,04,05,09,16.60
2008,07,04,05,10,16.70
2008,07,04,05,11,16.70
2008,07,04,05,12,16.70
2008,07,04,05,13,16.70
2008,07,04,05,14,16.70
2008,07,04,05,15,16.70
2008,07,04,05,16,16.70
2008,07,04,05,17,16.70
2008,07,04,05,18,16.70
2008,07,04,05,19,16.70
2008,07,04,05,20,16.70
2008,07,04,05,21,16.70
2008,07,04,05,22,16.70
2008,07,04,05,23,16.70
2008,07,04,05,24,16.70
2008,07,04,05,25,16.70
2008,07,04,05,26,16.70
2008,07,04,05,27,16.70
2008,07,04,05,28,16.70
2008,07,04,05,29,16.70
2008,07,04,05,30,16.70
2008,07,04,05,31,16.70
2008,07,04,05,32,16.80
2008,07,04,05,33,16.80
2008,07,04,05,34,16.80
2008,07,04,05,35,16.80
2008,07,04,05,36,16.80
2008,07,04,05,37,16.80
2008,07,04,05,38,16.90
2008,07,04,05,39,16.90
2008,07,04,05,40,16.90
2008,07,04,05,41,16.90
2008,07,04,05,42,16.90
2008,07,04,05,43,16.90
2008,07,04,05,44,16.90
2008,07,04,05,45,17.00
2008,07,04,05,46,17.00
2008,07,04,05,47,17.00
2008,07,04,05,48,17.00
2008,07,04,05,49,17.00
2008,07,04,05,50,17.10
2008,07,04,05,51,17.10
2008,07,04,05,52,17.10
2008,07,04,05,53,17.10
2008,07,04,05,54,17.20
2008,07,04,05,55,17.20
2008,07,04,05,56,17.20
2008,07,04,05,57,17.20
2008,07,04,05,58,17.20
2008,07,04,05,59,17.20
2008,07,04,06,00,17.20
2008,07,04,06,01,17.20
2008,07,04,06,02,17.30
2008,07,04,06,03,17.30
2008,07,04,06,04,17.30
2008,07,04,06,05,17.30
2008,07,04,06,06,17.30
2008,07,04,06,07,17.30
2008,07,04,06,08,17.30
2008,07,04,06,09,17.30
2008,07,04,06,10,17.30
2008,07,04,06,11,17.30
2008,07,04,06,12,17.30
2008,07,04,06,13,17.30
2008,07,04,06,14,17.30
2008,07,04,06,15,17.30
2008,07,04,06,16,17.30
2008,07,04,06,17,17.30
2008,07,04,06,18,17.30
2008,07,04,06,19,17.30
2008,07,04,06,20,17.30
2008,07,04,06,21,17.30
2008,07,04,06,22,17.30
2008,07,04,06,23,17.30
2008,07,04,06,24,17.30
2008,07,04,06,25,17.30
2008,07,04,06,26,17.30
2008,07,04,06,27,17.30
2008,07,04,06,28,17.30
2008,07,04,06,29,17.30
2008,07,04,06,30,17.30
2008,07,04,06,31,17.30
2008,07,04,06,32,17.30
2008,07,04,06,33,17.30
2008,07,04,06,34,17.30
2008,07,04,06,35,17.40
2008,07,04,06,36,17.40
2008,07,04,06,37,17.40
2008,07,04,06,38,17.40
2008,07,04,06,39,17.40
2008,07,04,06,40,17.40
2008,07,04,06,41,17.40
2008,07,04,06,42,17.40
2008,07,04,06,43,17.40
2008,07,04,06,44,17.50
2008,07,04,06,45,17.50
2008,07,04,06,46,17.50
2008,07,04,06,47,17.50
2008,07,04,06,48,17.50
2008,07,04,06,49,17.50
2008,07,04,06,50,17.50
2008,07,04,06,51,17.50
2008,07,04,06,52,17.50
2008,07,04,06,53,17.50
2008,07,04,06,54,17.60
2008,07,04,06,55,17.60
2008,07,04,06,56,17.60
2008,07,04,06,57,17.60
2008,07,04,06,58,17.60
2008,07,04,06,59,17.60
2008,07,04,07,00,17.60
2008,07,04,07,01,17.60
2008,07,04,07,02,17.60
2008,07,04,07,03,17.60
2008,07,04,07,04,17.60
2008,07,04,07,05,17.60
2008,07,04,07,06,17.60
2008,07,04,07,07,17.60
2008,07,04,07,08,17.60
2008,07,04,07,09,17.60
2008,07,04,07,10,17.60
2008,07,04,07,11,17.60
2008,07,04,07,12,17.60
2008,07,04,07,13,17.60
2008,07,04,07,14,17.60
2008,07,04,07,15,17.60
2008,07,04,07,16,17.60
2008,07,04,07,17,17.60
2008,07,04,07,18,17.60
2008,07,04,07,19,17.60
2008,07,04,07,20,17.60
2008,07,04,07,21,17.60
2008,07,04,07,22,17.60
2008,07,04,07,23,17.60
2008,07,04,07,24,17.60
2008,07,04,07,25,17.60
2008,07,04,07,26,17.60
2008,07,04,07,27,17.60
2008,07,04,07,28,17.60
2008,07,04,07,29,17.70
2008,07,04,07,30,17.70
2008,07,04,07,31,17.70
2008,07,04,07,32,17.70
2008,07,04,07,33,17.60
2008,07,04,07,34,17.60
2008,07,04,07,35,17.60
2008,07,04,07,36,17.60
2008,07,04,07,37,17.60
2008,07,04,07,38,17.60
2008,07,04,07,39,17.50
2008,07,04,07,40,17.50
2008,07,04,07,41,17.50
2008,07,04,07,42,17.50
2008,07,04,07,43,17.50
2008,07,04,07,44,17.50
2008,07,04,07,45,17.50
2008,07,04,07,46,17.50
2008,07,04,07,47,17.50
2008,07,04,07,48,17.50
2008,07,04,07,49,17.60
2008,07,04,07,50,17.60
2008,07,04,07,51,17.60
2008,07,04,07,52,17.60
2008,07,04,07,53,17.60
2008,07,04,07,54,17.60
2008,07,04,07,55,17.60
2008,07,04,07,56,17.60
2008,07,04,07,57,17.60
2008,07,04,07,58,17.60
2008,07,04,07,59,17.60
2008,07,04,08,00,17.60
2008,07,04,08,01,17.60
2008,07,04,08,02,17.70
2008,07,04,08,03,17.70
2008,07,04,08,04,17.70
2008,07,04,08,05,17.70
2008,07,04,08,06,17.70
2008,07,04,08,07,17.70
2008,07,04,08,08,17.70
2008,07,04,08,09,17.70
2008,07,04,08,10,17.70
2008,07,04,08,11,17.80
2008,07,04,08,12,17.80
2008,07,04,08,13,17.80
2008,07,04,08,14,17.80
2008,07,04,08,15,17.80
2008,07,04,08,16,17.80
2008,07,04,08,17,17.80
2008,07,04,08,18,17.80
2008,07,04,08,19,17.80
2008,07,04,08,20,17.90
2008,07,04,08,21,17.90
2008,07,04,08,22,17.90
2008,07,04,08,23,17.90
2008,07,04,08,24,17.90
2008,07,04,08,25,17.90
2008,07,04,08,26,17.90
2008,07,04,08,27,17.90
2008,07,04,08,28,17.90
2008,07,04,08,29,17.90
2008,07,04,08,30,18.00
2008,07,04,08,31,18.10
2008,07,04,08,32,18.10
2008,07,04,08,33,18.10
2008,07,04,08,34,18.10
2008,07,04,08,35,18.20
2008,07,04,08,36,18.10
2008,07,04,08,37,18.10
2008,07,04,08,38,18.10
2008,07,04,08,39,18.10
2008,07,04,08,40,18.10
2008,07,04,08,41,18.20
2008,07,04,08,42,18.20
2008,07,04,08,43,18.20
2008,07,04,08,44,18.20
2008,07,04,08,45,18.20
2008,07,04,08,46,18.20
2008,07,04,08,47,18.20
2008,07,04,08,48,18.20
2008,07,04,08,49,18.20
2008,07,04,08,50,18.20
2008,07,04,08,51,18.20
2008,07,04,08,52,18.20
2008,07,04,08,53,18.20
2008,07,04,08,54,18.20
2008,07,04,08,55,18.20
2008,07,04,08,56,18.20
2008,07,04,08,57,18.20
2008,07,04,08,58,18.20
2008,07,04,08,59,18.20
2008,07,04,09,00,18.30
2008,07,04,09,01,18.30
2008,07,04,09,02,18.30
2008,07,04,09,03,18.30
2008,07,04,09,04,18.30
2008,07,04,09,05,18.30
2008,07,04,09,06,18.30
2008,07,04,09,07,18.30
2008,07,04,09,08,18.40
2008,07,04,09,09,18.40
2008,07,04,09,10,18.40
2008,07,04,09,11,18.40
2008,07,04,09,12,18.40
2008,07,04,09,13,18.40
2008,07,04,09,14,18.40
2008,07,04,09,15,18.50
2008,07,04,09,16,18.50
2008,07,04,09,17,18.50
2008,07,04,09,18,18.50
2008,07,04,09,19,18.50
2008,07,04,09,20,18.40
2008,07,04,09,21,18.40
2008,07,04,09,22,18.40
2008,07,04,09,23,18.40
2008,07,04,09,24,18.40
2008,07,04,09,25,18.40
2008,07,04,09,26,18.40
2008,07,04,09,27,18.40
2008,07,04,09,28,18.40
2008,07,04,09,29,18.40
2008,07,04,09,30,18.40
2008,07,04,09,31,18.40
2008,07,04,09,32,18.50
2008,07,04,09,33,18.50
2008,07,04,09,34,18.50
2008,07,04,09,35,18.50
2008,07,04,09,36,18.50
2008,07,04,09,37,18.50
2008,07,04,09,38,18.50
2008,07,04,09,39,18.50
2008,07,04,09,40,18.50
2008,07,04,09,41,18.50
2008,07,04,09,42,18.50
2008,07,04,09,43,18.50
2008,07,04,09,44,18.50
2008,07,04,09,45,18.50
2008,07,04,09,46,18.60
2008,07,04,09,47,18.60
2008,07,04,09,48,18.60
2008,07,04,09,49,18.60
2008,07,04,09,50,18.70
2008,07,04,09,51,18.70
2008,07,04,09,52,18.70
2008,07,04,09,53,18.70
2008,07,04,09,54,18.70
2008,07,04,09,55,18.70
2008,07,04,09,56,18.80
2008,07,04,09,57,18.80
2008,07,04,09,58,18.80
2008,07,04,09,59,18.80
2008,07,04,10,00,18.80
2008,07,04,10,01,18.80
2008,07,04,10,02,18.90
2008,07,04,10,03,18.90
2008,07,04,10,04,18.90
2008,07,04,10,05,18.90
2008,07,04,10,06,18.90
2008,07,04,10,07,18.90
2008,07,04,10,08,18.90
2008,07,04,10,09,19.10
2008,07,04,10,10,19.10
2008,07,04,10,11,19.10
2008,07,04,10,12,19.10
2008,07,04,10,13,19.10
2008,07,04,10,14,19.10
2008,07,04,10,15,19.10
2008,07,04,10,16,19.10
2008,07,04,10,17,19.20
2008,07,04,10,18,19.20
2008,07,04,10,19,19.30
2008,07,04,10,20,19.30
2008,07,04,10,21,19.40
2008,07,04,10,22,19.50
2008,07,04,10,23,19.60
2008,07,04,10,24,19.60
2008,07,04,10,25,19.70
2008,07,04,10,26,19.70
2008,07,04,10,27,19.60
2008,07,04,10,28,19.60
2008,07,04,10,29,19.60
2008,07,04,10,30,19.60
2008,07,04,10,31,19.60
2008,07,04,10,32,19.70
2008,07,04,10,33,19.60
2008,07,04,10,34,19.60
2008,07,04,10,35,19.50
2008,07,04,10,36,19.30
2008,07,04,10,37,19.10
2008,07,04,10,38,18.90
2008,07,04,10,39,18.70
2008,07,04,10,40,18.50
2008,07,04,10,41,18.40
2008,07,04,10,42,18.30
2008,07,04,10,43,18.30
2008,07,04,10,44,18.30
2008,07,04,10,45,18.20
2008,07,04,10,46,18.00
2008,07,04,10,47,17.80
2008,07,04,10,48,17.60
2008,07,04,10,49,17.50
2008,07,04,10,50,17.30
2008,07,04,10,51,17.30
2008,07,04,10,52,17.20
2008,07,04,10,53,17.00
2008,07,04,10,54,16.90
2008,07,04,10,55,16.90
2008,07,04,10,56,16.90
2008,07,04,10,57,16.90
2008,07,04,10,58,16.70
2008,07,04,10,59,16.70
2008,07,04,11,00,16.70
2008,07,04,11,01,16.70
2008,07,04,11,02,16.70
2008,07,04,11,03,16.60
2008,07,04,11,04,16.60
2008,07,04,11,05,16.40
2008,07,04,11,06,16.40
2008,07,04,11,07,16.40
2008,07,04,11,08,16.40
2008,07,04,11,09,16.40
2008,07,04,11,10,16.30
2008,07,04,11,11,16.30
2008,07,04,11,12,16.30
2008,07,04,11,13,16.30
2008,07,04,11,14,16.30
2008,07,04,11,15,16.40
2008,07,04,11,16,16.50
2008,07,04,11,17,16.70
2008,07,04,11,18,16.70
2008,07,04,11,19,16.80
2008,07,04,11,20,16.90
2008,07,04,11,21,17.00
2008,07,04,11,22,17.10
2008,07,04,11,23,17.20
2008,07,04,11,24,17.20
2008,07,04,11,25,17.30
2008,07,04,11,26,17.30
2008,07,04,11,27,17.30
2008,07,04,11,28,17.40
2008,07,04,11,29,17.50
2008,07,04,11,30,17.60
2008,07,04,11,31,17.70
2008,07,04,11,32,17.80
2008,07,04,11,33,17.90
2008,07,04,11,34,18.10
2008,07,04,11,35,18.20
2008,07,04,11,36,18.30
2008,07,04,11,37,18.50
2008,07,04,11,38,18.60
2008,07,04,11,39,18.70
2008,07,04,11,40,18.80
2008,07,04,11,41,18.90
2008,07,04,11,42,19.00
2008,07,04,11,43,19.10
2008,07,04,11,44,19.30
2008,07,04,11,45,19.40
2008,07,04,11,46,19.50
2008,07,04,11,47,19.60
2008,07,04,11,48,19.60
2008,07,04,11,49,19.60
2008,07,04,11,50,19.60
2008,07,04,11,51,19.60
2008,07,04,11,52,19.60
2008,07,04,11,53,19.60
2008,07,04,11,54,19.70
2008,07,04,11,55,19.70
2008,07,04,11,56,19.70
2008,07,04,11,57,19.80
2008,07,04,11,58,19.80
2008,07,04,11,59,19.80
2008,07,04,12,00,19.80
2008,07,04,12,01,19.90
2008,07,04,12,02,20.10
2008,07,04,12,03,20.20
2008,07,04,12,04,20.20
2008,07,04,12,05,20.20
2008,07,04,12,06,20.20
2008,07,04,12,07,20.20
2008,07,04,12,08,20.20
2008,07,04,12,09,20.20
2008,07,04,12,10,20.20
2008,07,04,12,11,20.20
2008,07,04,12,12,20.20
2008,07,04,12,13,20.10
2008,07,04,12,14,20.10
2008,07,04,12,15,20.10
2008,07,04,12,16,20.20
2008,07,04,12,17,20.20
2008,07,04,12,18,20.20
2008,07,04,12,19,20.30
2008,07,04,12,20,20.40
2008,07,04,12,21,20.50
2008,07,04,12,22,20.60
2008,07,04,12,23,20.70
2008,07,04,12,24,20.80
2008,07,04,12,25,20.90
2008,07,04,12,26,20.80
2008,07,04,12,27,20.80
2008,07,04,12,28,20.70
2008,07,04,12,29,20.50
2008,07,04,12,30,20.30
2008,07,04,12,31,20.20
2008,07,04,12,32,20.10
2008,07,04,12,33,19.90
2008,07,04,12,34,19.90
2008,07,04,12,35,19.80
2008,07,04,12,36,19.90
2008,07,04,12,37,19.90
2008,07,04,12,38,19.80
2008,07,04,12,39,19.70
2008,07,04,12,40,19.70
2008,07,04,12,41,19.70
2008,07,04,12,42,19.70
2008,07,04,12,43,19.70
2008,07,04,12,44,19.70
2008,07,04,12,45,19.80
2008,07,04,12,46,19.80
2008,07,04,12,47,19.80
2008,07,04,12,48,19.90
2008,07,04,12,49,19.90
2008,07,04,12,50,19.90
2008,07,04,12,51,20.00
2008,07,04,12,52,20.10
2008,07,04,12,53,20.10
2008,07,04,12,54,20.10
2008,07,04,12,55,20.10
2008,07,04,12,56,19.90
2008,07,04,12,57,19.90
2008,07,04,12,58,19.90
2008,07,04,12,59,19.90
2008,07,04,13,00,19.90
2008,07,04,13,01,19.90
2008,07,04,13,02,19.90
2008,07,04,13,03,19.90
2008,07,04,13,04,19.90
2008,07,04,13,05,19.90
2008,07,04,13,06,19.90
2008,07,04,13,07,19.90
2008,07,04,13,08,19.90
2008,07,04,13,09,19.90
2008,07,04,13,10,19.90
2008,07,04,13,11,19.90
2008,07,04,13,12,20.10
2008,07,04,13,13,20.10
2008,07,04,13,14,20.10
2008,07,04,13,15,20.10
2008,07,04,13,16,20.00
2008,07,04,13,17,19.90
2008,07,04,13,18,19.90
2008,07,04,13,19,19.90
2008,07,04,13,20,20.00
2008,07,04,13,21,20.10
2008,07,04,13,22,20.10
2008,07,04,13,23,20.10
2008,07,04,13,24,20.10
2008,07,04,13,25,20.20
2008,07,04,13,26,20.20
2008,07,04,13,27,20.20
2008,07,04,13,28,20.20
2008,07,04,13,29,20.20
2008,07,04,13,30,20.30
2008,07,04,13,31,20.30
2008,07,04,13,32,20.40
2008,07,04,13,33,20.50
2008,07,04,13,34,20.60
2008,07,04,13,35,20.70
2008,07,04,13,36,20.80
2008,07,04,13,37,20.80
2008,07,04,13,38,20.90
2008,07,04,13,39,21.00
2008,07,04,13,40,21.20
2008,07,04,13,41,21.40
2008,07,04,13,42,21.40
2008,07,04,13,43,21.20
2008,07,04,13,44,21.00
2008,07,04,13,45,20.90
2008,07,04,13,46,20.80
2008,07,04,13,47,20.70
2008,07,04,13,48,20.70
2008,07,04,13,49,20.50
2008,07,04,13,50,20.40
2008,07,04,13,51,20.50
2008,07,04,13,52,20.50
2008,07,04,13,53,20.40
2008,07,04,13,54,20.40
2008,07,04,13,55,20.50
2008,07,04,13,56,20.60
2008,07,04,13,57,20.70
2008,07,04,13,58,20.70
2008,07,04,13,59,20.70
2008,07,04,14,00,20.80
2008,07,04,14,01,20.90
2008,07,04,14,02,21.00
2008,07,04,14,03,20.90
2008,07,04,14,04,20.90
2008,07,04,14,05,20.80
2008,07,04,14,06,20.80
2008,07,04,14,07,20.70
2008,07,04,14,08,20.80
2008,07,04,14,09,20.80
2008,07,04,14,10,20.70
2008,07,04,14,11,20.80
2008,07,04,14,12,20.80
2008,07,04,14,13,20.70
2008,07,04,14,14,20.60
2008,07,04,14,15,20.50
2008,07,04,14,16,20.50
2008,07,04,14,17,20.40
2008,07,04,14,18,20.10
2008,07,04,14,19,19.80
2008,07,04,14,20,19.60
2008,07,04,14,21,19.40
2008,07,04,14,22,19.00
2008,07,04,14,23,18.90
2008,07,04,14,24,18.60
2008,07,04,14,25,18.50
2008,07,04,14,26,18.50
2008,07,04,14,27,18.30
2008,07,04,14,28,18.20
2008,07,04,14,29,18.10
2008,07,04,14,30,18.00
2008,07,04,14,31,17.90
2008,07,04,14,32,17.80
2008,07,04,14,33,17.70
2008,07,04,14,34,17.70
2008,07,04,14,35,17.50
2008,07,04,14,36,17.40
2008,07,04,14,37,17.30
2008,07,04,14,38,17.30
2008,07,04,14,39,17.30
2008,07,04,14,40,17.40
2008,07,04,14,41,17.50
2008,07,04,14,42,17.70
2008,07,04,14,43,17.90
2008,07,04,14,44,18.10
2008,07,04,14,45,18.40
2008,07,04,14,46,18.50
2008,07,04,14,47,18.60
2008,07,04,14,48,18.80
2008,07,04,14,49,18.90
2008,07,04,14,50,19.10
2008,07,04,14,51,19.10
2008,07,04,14,52,19.30
2008,07,04,14,53,19.30
2008,07,04,14,54,19.40
2008,07,04,14,55,19.50
2008,07,04,14,56,19.60
2008,07,04,14,57,19.50
2008,07,04,14,58,19.40
2008,07,04,14,59,19.40
2008,07,04,15,00,19.40
2008,07,04,15,01,19.30
2008,07,04,15,02,19.40
2008,07,04,15,03,19.40
2008,07,04,15,04,19.50
2008,07,04,15,05,19.60
2008,07,04,15,06,19.70
2008,07,04,15,07,19.80
2008,07,04,15,08,19.90
2008,07,04,15,09,19.90
2008,07,04,15,10,20.00
2008,07,04,15,11,20.10
2008,07,04,15,12,20.40
2008,07,04,15,13,20.60
2008,07,04,15,14,20.80
2008,07,04,15,15,20.90
2008,07,04,15,16,21.00
2008,07,04,15,17,21.20
2008,07,04,15,18,21.30
2008,07,04,15,19,21.50
2008,07,04,15,20,21.60
2008,07,04,15,21,21.60
2008,07,04,15,22,21.60
2008,07,04,15,23,21.60
2008,07,04,15,24,21.40
2008,07,04,15,25,21.20
2008,07,04,15,26,21.10
2008,07,04,15,27,21.00
2008,07,04,15,28,20.90
2008,07,04,15,29,20.70
2008,07,04,15,30,20.60
2008,07,04,15,31,20.50
2008,07,04,15,32,20.40
2008,07,04,15,33,20.30
2008,07,04,15,34,20.20
2008,07,04,15,35,20.20
2008,07,04,15,36,20.20
2008,07,04,15,37,20.10
2008,07,04,15,38,20.20
2008,07,04,15,39,20.20
2008,07,04,15,40,20.20
2008,07,04,15,41,20.20
2008,07,04,15,42,20.30
2008,07,04,15,43,20.40
2008,07,04,15,44,20.40
2008,07,04,15,45,20.50
2008,07,04,15,46,20.70
2008,07,04,15,47,20.70
2008,07,04,15,48,20.70
2008,07,04,15,49,20.80
2008,07,04,15,50,21.00
2008,07,04,15,51,21.10
2008,07,04,15,52,21.20
2008,07,04,15,53,21.20
2008,07,04,15,54,21.20
2008,07,04,15,55,21.20
2008,07,04,15,56,21.20
2008,07,04,15,57,21.20
2008,07,04,15,58,21.20
2008,07,04,15,59,21.30
2008,07,04,16,00,21.30
2008,07,04,16,01,21.50
2008,07,04,16,02,21.70
2008,07,04,16,03,21.60
2008,07,04,16,04,21.50
2008,07,04,16,05,21.40
2008,07,04,16,06,21.40
2008,07,04,16,07,21.40
2008,07,04,16,08,21.30
2008,07,04,16,09,21.40
2008,07,04,16,10,21.50
2008,07,04,16,11,21.60
2008,07,04,16,12,21.70
2008,07,04,16,13,21.60
2008,07,04,16,14,21.40
2008,07,04,16,15,21.30
2008,07,04,16,16,21.30
2008,07,04,16,17,21.10
2008,07,04,16,18,21.00
2008,07,04,16,19,21.00
2008,07,04,16,20,21.00
2008,07,04,16,21,21.00
2008,07,04,16,22,21.10
2008,07,04,16,23,21.10
2008,07,04,16,24,21.00
2008,07,04,16,25,21.00
2008,07,04,16,26,21.20
2008,07,04,16,27,21.30
2008,07,04,16,28,21.30
2008,07,04,16,29,21.30
2008,07,04,16,30,21.30
2008,07,04,16,31,21.30
2008,07,04,16,32,21.30
2008,07,04,16,33,21.30
2008,07,04,16,34,21.30
2008,07,04,16,35,21.30
2008,07,04,16,36,21.20
2008,07,04,16,37,21.10
2008,07,04,16,38,20.90
2008,07,04,16,39,20.90
2008,07,04,16,40,20.90
2008,07,04,16,41,20.90
2008,07,04,16,42,21.00
2008,07,04,16,43,21.10
2008,07,04,16,44,21.10
2008,07,04,16,45,21.00
2008,07,04,16,46,21.00
2008,07,04,16,47,20.90
2008,07,04,16,48,20.90
2008,07,04,16,49,20.80
2008,07,04,16,50,20.70
2008,07,04,16,51,20.60
2008,07,04,16,52,20.50
2008,07,04,16,53,20.50
2008,07,04,16,54,20.40
2008,07,04,16,55,20.40
2008,07,04,16,56,20.50
2008,07,04,16,57,20.50
2008,07,04,16,58,20.40
2008,07,04,16,59,20.30
2008,07,04,17,00,20.30
2008,07,04,17,01,20.30
2008,07,04,17,02,20.30
2008,07,04,17,03,20.20
2008,07,04,17,04,20.20
2008,07,04,17,05,20.20
2008,07,04,17,06,20.20
2008,07,04,17,07,20.20
2008,07,04,17,08,20.20
2008,07,04,17,09,20.20
2008,07,04,17,10,20.20
2008,07,04,17,11,20.20
2008,07,04,17,12,20.20
2008,07,04,17,13,20.10
2008,07,04,17,14,20.10
2008,07,04,17,15,20.10
2008,07,04,17,16,20.00
2008,07,04,17,17,19.90
2008,07,04,17,18,19.90
2008,07,04,17,19,19.90